Torna al catalogo

OPS 4947

TRANSIT 17

AttivoNavigazionePO
NORAD 2965·PAYLOAD·🇺🇸 United States

Lanciato Sep 25, 1967 da Vandenberg Space Force Base

Loading…

Prossimi Passaggi (prossime 24 ore)

TLE

AggiornatoSource: Space-Track

Epoca: Sep 14, 2026, 06:11 UTC

1 02965U 67092A   26257.25798904  .00000100  00000-0  12997-3 0  9994
2 02965  89.2621   3.5766 0048784 153.8469 235.0955 13.53512181908248

Traccia OPS 4947 in tempo reale con AllMySat

Download on the App Store